TOM92Y EGCC-LDSP

Flight info

Callsign TOM92Y
Flight time N/A
Altitude 35000
Route LISTO2Y LISTO L612 HON/N0462F330 L15 MOTOX DCT RUCAC DCT LESDO/N0461F350 DCT ETINO DCT DEVDI DCT RIPUS DCT RESIA DCT LISKO DCT TORPO TORPO1Z
Aircraft B738/M-SDE3/2105

Departure

Time 2026-05-01 14:24
Airport Manchester Airport (EGCC)

Arrival

Time N/A
Airport Split Saint Jerome Airport (LDSP)
Time Latitude Longitude Altitude Speed Heading
2026-05-01 13:46 53.36466 -2.28341 216 ft 0 kts 45°
2026-05-01 14:11 53.36458 -2.28355 216 ft 2 kts 44°
2026-05-01 14:11 53.36437 -2.28389 216 ft 2 kts 44°
2026-05-01 14:11 53.36427 -2.28409 215 ft 2 kts 70°
2026-05-01 14:12 53.36425 -2.28433 215 ft 2 kts 94°
2026-05-01 14:12 53.36428 -2.28457 215 ft 2 kts 118°
2026-05-01 14:12 53.36433 -2.28470 215 ft 1 kts 134°
2026-05-01 14:12 53.36438 -2.28477 215 ft 0 kts 136°
2026-05-01 14:15 53.36436 -2.28475 215 ft 1 kts 136°
2026-05-01 14:15 53.36410 -2.28430 216 ft 8 kts 135°
2026-05-01 14:15 53.36351 -2.28330 218 ft 15 kts 135°
2026-05-01 14:16 53.36275 -2.28202 226 ft 13 kts 135°
2026-05-01 14:16 53.36224 -2.28116 230 ft 9 kts 135°
2026-05-01 14:16 53.36166 -2.28022 234 ft 14 kts 135°
2026-05-01 14:16 53.36082 -2.27875 237 ft 20 kts 136°
2026-05-01 14:17 53.36024 -2.27827 238 ft 1 kts 181°
2026-05-01 14:17 53.35987 -2.27833 238 ft 10 kts 187°
2026-05-01 14:17 53.35885 -2.27848 238 ft 17 kts 168°
2026-05-01 14:17 53.35799 -2.27706 240 ft 19 kts 134°
2026-05-01 14:18 53.35727 -2.27636 242 ft 12 kts 160°
2026-05-01 14:18 53.35688 -2.27520 244 ft 16 kts 45°
2026-05-01 14:18 53.35766 -2.27366 248 ft 7 kts 60°
2026-05-01 14:18 53.35775 -2.27326 250 ft 4 kts 86°
2026-05-01 14:19 53.35747 -2.27257 252 ft 7 kts 142°
2026-05-01 14:19 53.35701 -2.27193 254 ft 5 kts 140°
2026-05-01 14:19 53.35698 -2.27190 254 ft 0 kts 140°
2026-05-01 14:21 53.35698 -2.27189 254 ft 0 kts 140°
2026-05-01 14:21 53.35695 -2.27185 254 ft 2 kts 140°
2026-05-01 14:22 53.35607 -2.27065 258 ft 12 kts 141°
2026-05-01 14:22 53.35525 -2.26956 261 ft 17 kts 142°
2026-05-01 14:22 53.35423 -2.26924 261 ft 16 kts 224°
2026-05-01 14:22 53.35345 -2.27088 256 ft 20 kts 232°
2026-05-01 14:23 53.35218 -2.27225 250 ft 23 kts 192°
2026-05-01 14:23 53.35060 -2.27286 247 ft 23 kts 194°
2026-05-01 14:23 53.34933 -2.27447 241 ft 24 kts 234°
2026-05-01 14:23 53.34819 -2.27704 231 ft 36 kts 232°
2026-05-01 14:24 53.34550 -2.28262 220 ft 99 kts 233°
2026-05-01 14:24 53.33966 -2.29516 229 ft 166 kts 233°
2026-05-01 14:24 53.33209 -2.31127 787 ft 185 kts 232°
2026-05-01 14:24 53.32393 -2.32854 1432 ft 200 kts 231°
2026-05-01 14:25 53.31534 -2.34739 1860 ft 205 kts 232°
2026-05-01 14:25 53.30707 -2.36674 2573 ft 208 kts 233°
2026-05-01 14:25 53.29880 -2.38686 3198 ft 214 kts 235°
2026-05-01 14:25 53.29045 -2.40830 3726 ft 226 kts 235°
2026-05-01 14:26 53.28160 -2.43110 4089 ft 244 kts 235°
2026-05-01 14:26 53.26412 -2.47547 6244 ft 210 kts 233°
2026-05-01 14:26 53.25539 -2.49652 6293 ft 235 kts 232°
2026-05-01 14:27 53.24558 -2.51954 5828 ft 245 kts 228°
2026-05-01 14:27 53.23274 -2.53767 5923 ft 243 kts 205°
2026-05-01 14:27 53.21666 -2.54506 6446 ft 246 kts 181°
2026-05-01 14:28 53.18588 -2.52148 6321 ft 258 kts 127°
2026-05-01 14:28 53.17724 -2.49608 6319 ft 254 kts 121°
2026-05-01 14:28 53.16918 -2.46993 6316 ft 257 kts 121°
2026-05-01 14:28 53.16104 -2.44357 6346 ft 258 kts 121°
2026-05-01 14:29 53.15272 -2.41677 6612 ft 263 kts 121°
2026-05-01 14:29 53.14429 -2.38961 7108 ft 270 kts 121°
2026-05-01 14:30 53.11233 -2.31388 8560 ft 267 kts 143°
2026-05-01 14:30 53.09710 -2.29640 9065 ft 268 kts 152°
2026-05-01 14:30 53.08062 -2.28154 9566 ft 269 kts 155°
2026-05-01 14:31 53.04642 -2.25302 10562 ft 288 kts 155°
2026-05-01 14:31 53.02839 -2.23763 11057 ft 300 kts 154°
2026-05-01 14:31 53.00943 -2.22124 11554 ft 312 kts 154°
2026-05-01 14:31 52.98993 -2.20431 12048 ft 323 kts 154°
2026-05-01 14:32 52.96980 -2.18685 12545 ft 334 kts 154°
2026-05-01 14:32 52.95607 -2.17495 12866 ft 340 kts 154°
2026-05-01 14:32 52.92788 -2.15053 13536 ft 343 kts 154°
2026-05-01 14:32 52.90684 -2.13232 14027 ft 347 kts 154°
2026-05-01 14:33 52.88535 -2.11374 14522 ft 349 kts 154°
2026-05-01 14:33 52.86375 -2.09510 15011 ft 352 kts 154°
2026-05-01 14:33 52.84217 -2.07651 15503 ft 354 kts 154°
2026-05-01 14:33 52.82037 -2.05775 16011 ft 357 kts 154°
2026-05-01 14:34 52.79832 -2.03881 16499 ft 359 kts 154°
2026-05-01 14:34 52.77593 -2.01960 17001 ft 362 kts 154°
2026-05-01 14:34 52.75384 -2.00067 17485 ft 363 kts 154°
2026-05-01 14:34 52.73146 -1.98151 17978 ft 367 kts 154°
2026-05-01 14:35 52.70846 -1.96183 18487 ft 370 kts 154°
2026-05-01 14:35 52.68589 -1.94255 18982 ft 372 kts 154°
2026-05-01 14:35 52.66286 -1.92290 19488 ft 375 kts 154°
2026-05-01 14:35 52.63943 -1.90294 19989 ft 378 kts 154°
2026-05-01 14:36 52.61630 -1.88327 20509 ft 380 kts 154°
2026-05-01 14:36 52.59283 -1.86333 21020 ft 383 kts 154°
2026-05-01 14:36 52.56895 -1.84307 21535 ft 386 kts 154°
2026-05-01 14:36 52.54502 -1.82278 22168 ft 386 kts 154°
2026-05-01 14:37 52.52135 -1.80272 22846 ft 386 kts 154°
2026-05-01 14:37 52.49753 -1.78258 23376 ft 389 kts 154°
2026-05-01 14:37 52.47368 -1.76242 23909 ft 391 kts 154°
2026-05-01 14:37 52.44941 -1.74194 24452 ft 393 kts 154°
2026-05-01 14:38 52.42494 -1.72131 24997 ft 394 kts 154°
2026-05-01 14:38 52.40087 -1.70105 24930 ft 387 kts 154°
2026-05-01 14:38 52.37744 -1.68066 24724 ft 376 kts 152°
2026-05-01 14:38 52.35588 -1.65790 24411 ft 370 kts 144°
2026-05-01 14:39 52.33652 -1.63088 24497 ft 372 kts 139°
2026-05-01 14:39 52.31823 -1.60118 25032 ft 371 kts 136°
2026-05-01 14:39 52.30038 -1.57052 25175 ft 367 kts 135°
2026-05-01 14:39 52.28336 -1.54070 24970 ft 357 kts 135°
2026-05-01 14:40 52.26671 -1.51147 24749 ft 348 kts 135°
2026-05-01 14:40 52.25044 -1.48313 24937 ft 337 kts 136°
2026-05-01 14:40 52.23449 -1.45558 25333 ft 337 kts 136°
2026-05-01 14:40 52.21814 -1.42761 25402 ft 346 kts 136°
2026-05-01 14:41 52.20142 -1.39917 25197 ft 347 kts 136°
2026-05-01 14:41 52.18502 -1.37130 25003 ft 344 kts 136°
2026-05-01 14:41 52.16848 -1.34324 24804 ft 342 kts 137°
2026-05-01 14:41 52.15212 -1.31553 24606 ft 341 kts 137°
2026-05-01 14:42 52.13551 -1.28746 24406 ft 340 kts 137°
2026-05-01 14:42 52.11935 -1.26019 24208 ft 339 kts 137°
2026-05-01 14:42 52.10320 -1.23294 24005 ft 332 kts 137°
2026-05-01 14:42 52.08740 -1.20626 23795 ft 323 kts 137°
2026-05-01 14:43 52.07197 -1.18027 23594 ft 318 kts 137°
2026-05-01 14:43 52.05649 -1.15426 23396 ft 320 kts 137°
2026-05-01 14:43 52.04106 -1.12840 23210 ft 321 kts 137°
2026-05-01 14:43 52.02553 -1.10237 22995 ft 320 kts 137°
2026-05-01 14:44 52.01015 -1.07667 22793 ft 318 kts 137°
2026-05-01 14:44 52.00985 -1.07618 22789 ft 318 kts 137°